Regional Weather Roundup
Issued by NWS

Home | Current Version | Previous Version | Graphics & Text | Print | Product List | Glossary Off
Versions: 1 2 3 4 5 6 7 8 9 10 11 12 13 14 15 16 17 18 19 20 21 22 23 24 25 26 27 28 29 30 31 32 33 34 35 36 37 38 39 40 41 42 43 44 45 46 47 48 49 50

000
ASUS43 KLSX 212307
RWRMO

WEATHER SUMMARY FOR MISSOURI
NATIONAL WEATHER SERVICE SPRINGFIELD MO
600 PM CDT MON MAY 21 2018

NOTE: "FAIR" INDICATES FEW OR NO CLOUDS BELOW 12,000 FEET WITH NO
       SIGNIFICANT WEATHER AND/OR OBSTRUCTIONS TO VISIBILITY.
       CURRENT SKY AND/OR WEATHER CONDITIONS ARE NOT AVAILABLE FOR
       CHILLICOTHE AND FARMINGTON.

MOZ001>031-035>038-043-044-053-054-220000-
...NORTHERN AND WESTERN MISSOURI...

CITY           SKY/WX    TMP DP  RH WIND       PRES   REMARKS
KANSAS CTY INT PTSUNNY   71  58  63 W3        30.00F
KANSAS C DTWN  SUNNY     72  58  61 N5        29.99F
LEE`S SUMMIT   SUNNY     74  59  59 NW7       30.00F
ST JOSEPH      SUNNY     73  60  63 SE5       29.99S
CHILLICOTHE      N/A     73  59  61 VRB5      30.00F
KIRKSVILLE     CLOUDY    74  63  68 W6        29.99S

$$
MOZ066>068-077>081-088>096-101>105-220000-
...SOUTHWEST MISSOURI...

CITY           SKY/WX    TMP DP  RH WIND       PRES   REMARKS
SPRINGFIELD    SUNNY     79  63  57 CALM      30.00S
JOPLIN         SUNNY     79  62  56 NW6       30.00F
BRANSON        PTSUNNY   77  68  73 SE8       30.02R

$$
MOZ032>034-039>042-045>050-055>058-069>072-220000-
...CENTRAL MISSOURI...

CITY           SKY/WX    TMP DP  RH WIND       PRES   REMARKS
COLUMBIA       MOSUNNY   78  63  59 W13       29.99S
JEFFERSON CITY SUNNY     79  64  60 W9        29.98R
ROLLA          MOSUNNY   78  66  66 NW6       30.00S
SEDALIA        PTSUNNY   75  64  68 MISG      30.00F
WARRENSBURG    SUNNY     73  57  56 W5        30.00S
OSAGE BEACH    SUNNY     77  65  66 W7        30.00S

$$
MOZ051-052-059>065-220000-
...EAST CENTRAL MISSOURI...

CITY           SKY/WX    TMP DP  RH WIND       PRES   REMARKS
ST LOUIS INTL  CLOUDY    80  69  69 S9        29.98S
SPIRIT OF STL  PTSUNNY   81  69  67 S6        29.96S
ST CHARLES     PTSUNNY   79  71  76 E7        29.96S

$$
MOZ072>076-082>087-097>100-106>115-220000-
...SOUTH CENTRAL AND SOUTHEAST MISSOURI...

CITY           SKY/WX    TMP DP  RH WIND       PRES   REMARKS
CAPE GIRARDEAU FAIR      79  69  71 W7        29.99S
FARMINGTON     CLOUDY    73  70  90 S3        30.01S
POPLAR BLUFF   FAIR      80  71  74 SW5       29.98F
WEST PLAINS    MOSUNNY   81  70  69 S6        30.01R

$$



USA.gov is the U.S. government's official web portal to all federal, state and local government web resources and services.